Dewpoint
30 21 18 17 17 8 4 6 1 -1 8 15 13 13 11 12 14 13 13 12 12 15 16 18 24 40 47 51 50 48 46 46 44 43 43 43 42 43 45 46 46 46 47 48
25 19 18 19 19 15 10 6 4 8 12 17 12 11 10 11 11 10 9 8 10 11 22 32 37 45 48 49 49 47 45 44 43 43 42 42 42 43 44 46 46 46 46 48
19 17 19 19 19 16 13 9 6 5 10 11 11 -0 4 7 12 14 14 17 19 18 24 35 40 45 48 48 48 46 45 43 42 41 40 42 43 44 43 44 44 45 46 47
19 20 21 19 15 15 9 15 11 12 8 2 11 -5 3 7 9 17 19 21 21 26 32 37 41 45 47 48 48 46 44 43 41 40 40 39 38 38 41 43 44 44 46 46
22 21 20 20 16 16 9 17 16 15 13 11 6 1 -4 7 3 6 16 21 26 32 36 39 42 45 47 47 47 45 44 42 41 40 39 38 37 40 42 43 43 44 45 46
21 24 21 17 19 18 21 20 19 21 17 20 10 1 -7 -5 4 9 14 20 29 36 40 41 44 46 46 46 46 45 43 42 40 40 38 37 38 41 42 41 41 43 45 46
23 23 24 22 20 23 23 18 27 23 27 19 13 8 0 6 8 12 14 19 29 38 41 43 44 45 45 45 45 44 43 40 39 38 37 37 39 41 41 40 41 42 43 44
26 25 23 23 20 19 22 17 26 17 14 10 13 8 7 14 16 15 18 19 28 37 41 43 44 45 45 45 44 43 42 39 37 36 36 38 39 40 39 40 41 42 42 43
29 27 24 22 22 21 25 22 22 24 19 18 9 9 13 19 16 17 19 21 25 34 39 42 44 44 45 44 44 42 41 38 36 35 36 38 39 40 40 41 42 42 42 42
29 30 26 24 24 24 22 22 18 24 21 15 14 11 9 17 14 17 19 21 22 27 36 40 42 43 44 44 43 41 39 37 35 34 35 37 38 40 40 41 41 41 42 43
33 30 25 25 25 21 21 21 19 18 18 19 18 10 18 16 16 17 18 21 22 25 30 36 40 43 43 43 42 41 39 37 36 35 35 37 39 39 40 40 41 41 42 43
30 29 26 27 28 28 19 17 15 16 22 17 19 16 22 22 22 22 20 22 23 26 28 32 37 41 42 41 41 40 38 37 36 35 35 37 37 39 39 40 40 41 41 43
31 32 27 25 27 28 25 21 17 18 25 23 22 16 25 24 25 25 22 23 24 27 29 32 35 37 39 40 40 39 38 37 37 35 35 36 37 38 39 39 40 41 41 43
34 35 28 21 22 23 25 22 21 21 25 21 20 21 19 29 27 23 24 28 27 27 29 31 34 36 38 39 39 38 37 37 37 35 35 36 37 37 38 39 40 41 41 43
31 30 29 29 27 24 23 24 25 24 22 25 24 25 21 24 30 32 27 30 30 36 34 32 36 37 38 39 39 38 38 38 37 36 36 36 37 37 38 39 41 41 41 42
32 31 30 28 29 28 27 25 26 24 25 26 27 27 26 21 27 28 27 29 30 30 34 35 34 36 36 39 37 37 39 38 37 36 36 35 36 36 38 39 40 40 41 42
33 32 31 28 27 29 26 26 25 24 24 25 25 25 25 26 26 26 27 29 29 29 29 31 31 34 35 34 34 34 35 36 37 37 37 35 36 36 38 38 39 39 40 42
34 33 32 29 28 21 27 28 26 25 25 25 23 24 25 25 27 28 27 28 29 30 29 30 31 32 33 34 36 34 34 34 36 36 36 35 36 37 38 39 38 39 40 42
32 33 29 27 26 25 26 28 27 25 24 25 23 22 23 27 27 26 28 29 30 31 31 32 32 30 31 31 32 33 34 35 36 36 35 35 36 36 37 37 38 38 40 42
31 33 29 29 25 23 23 30 30 27 25 28 26 25 25 25 22 22 30 32 32 32 32 31 31 31 31 32 33 34 35 35 35 35 36 36 37 36 36 38 39 40 41 42
27 30 28 27 27 26 25 30 31 27 24 27 29 28 27 24 24 30 31 32 33 32 32 31 31 31 32 32 34 33 33 33 34 35 36 37 37 38 36 37 38 40 40 40
25 27 27 27 26 23 28 30 27 28 28 27 30 31 31 29 30 32 31 33 32 31 31 31 30 30 31 33 33 32 32 32 34 34 34 35 36 35 37 38 38 37 39 38
21 25 25 29 28 30 30 29 31 29 28 27 30 34 32 30 31 32 32 32 31 31 30 31 31 31 32 33 33 32 32 33 34 34 33 34 34 34 35 36 35 36 36 36
27 31 28 28 32 28 28 29 30 30 28 28 28 32 32 31 32 32 32 31 31 31 30 31 31 30 29 31 32 32 33 34 33 33 33 33 34 34 34 35 35 37 37 35
29 32 30 29 29 31 30 29 30 32 31 31 31 32 31 33 33 32 32 32 31 30 30 31 31 29 28 29 30 32 34 34 33 33 33 33 33 33 33 33 35 35 36 35
30 28 27 28 32 33 30 31 31 32 31 32 33 34 35 35 34 34 33 32 30 30 28 28 27 26 26 27 27 27 30 32 31 31 32 32 33 33 33 33 34 34 34 35
Lifted_Index
7 7 7 7 8 8 8 7 7 8 9 9 8 7 7 8 8 8 8 8 9 9 10 11 12 12 11 10 9 9 9 9 9 10 11 12 14 15 15 15 14 14 13 13
6 6 7 7 8 8 7 7 7 8 9 9 8 7 7 7 8 8 8 8 9 9 10 10 11 12 11 10 9 9 9 9 9 10 11 13 14 15 15 14 14 14 13 13
5 6 7 7 7 7 7 6 6 7 8 8 7 6 6 7 7 8 8 8 8 8 9 9 10 11 11 10 10 9 9 9 9 10 11 13 14 15 15 14 14 14 14 13
5 6 6 6 6 6 6 7 7 7 6 7 6 5 5 6 7 7 7 7 7 8 8 9 10 10 11 10 10 9 9 9 9 10 12 13 14 15 14 13 14 14 13 13
6 6 6 6 6 6 7 7 7 7 6 6 5 5 5 5 6 6 6 7 7 7 8 9 10 11 11 11 10 9 9 9 9 11 12 13 15 15 14 13 13 14 13 12
6 6 7 7 6 6 7 7 6 6 5 4 5 5 5 5 6 6 6 6 7 7 8 9 10 11 11 10 10 9 9 9 10 11 12 14 15 15 13 13 13 13 13 12
5 5 6 6 6 6 6 5 4 3 2 3 4 5 5 6 6 6 6 6 7 8 8 9 10 11 10 10 9 9 9 10 11 12 13 14 15 15 13 12 12 13 13 12
3 4 5 5 5 4 4 4 3 2 1 2 4 4 5 7 7 6 6 6 7 8 8 9 10 10 10 10 10 9 10 10 11 12 12 13 14 14 13 12 12 12 12 12
3 3 4 5 5 5 4 4 4 3 2 2 3 4 5 7 7 6 5 6 6 7 8 9 10 10 10 10 10 10 10 11 12 12 12 13 14 14 13 12 11 12 12 12
3 3 4 4 5 5 4 4 4 4 2 2 2 4 5 6 6 5 5 5 6 7 8 9 10 10 10 10 10 10 11 11 12 12 12 12 13 13 12 11 11 11 12 12
3 3 3 3 4 4 4 3 3 3 3 2 2 3 5 6 6 5 5 5 6 7 8 9 9 10 10 10 10 10 11 11 11 12 12 12 12 12 12 11 10 11 11 12
3 3 3 3 3 4 3 3 2 3 3 2 2 4 6 6 6 5 4 5 6 7 8 8 9 9 10 10 10 10 11 11 11 11 11 11 11 12 11 11 10 10 11 11
3 2 2 3 3 4 3 3 3 2 2 2 2 4 6 6 5 5 4 4 5 6 7 8 8 9 10 10 10 10 11 11 11 11 11 11 11 11 11 10 10 10 10 10
2 2 2 2 3 3 3 3 3 2 2 2 2 4 5 6 5 4 4 4 5 5 6 7 7 8 9 10 10 10 10 11 10 10 10 11 11 11 11 10 10 10 10 10
1 1 2 2 3 3 3 3 2 2 2 2 3 4 5 5 5 4 4 4 4 4 5 6 6 7 8 9 10 10 10 10 10 10 10 10 11 11 11 10 11 10 10 9
1 1 2 2 3 3 3 3 2 2 2 3 3 4 4 5 5 4 4 4 4 4 4 5 6 7 8 9 9 10 10 10 10 9 10 10 10 10 10 10 11 11 10 9
1 1 1 2 2 2 2 3 3 3 3 3 3 3 4 4 4 4 4 3 3 3 3 4 6 7 8 9 9 9 9 9 9 9 9 10 10 10 10 10 11 11 11 10
1 1 0 1 1 2 2 3 3 3 3 3 3 3 4 4 4 4 4 4 3 3 4 5 6 7 8 9 9 9 9 8 8 8 9 9 9 10 10 10 11 11 11 11
1 0 0 0 1 1 2 3 3 3 3 3 3 4 4 4 4 5 5 5 4 4 5 5 6 7 7 7 7 7 7 7 7 7 8 8 9 9 10 10 11 11 12 12
1 0 -0 -0 0 1 2 3 3 3 3 3 3 3 3 4 4 4 5 5 5 5 6 6 6 6 7 7 7 7 6 6 6 7 7 8 9 9 10 11 11 12 12 12
1 0 -0 -0 -0 0 2 3 3 3 3 3 3 3 3 4 4 4 4 5 5 6 6 7 7 7 7 7 6 6 6 6 6 7 7 8 9 10 10 11 12 12 12 12
1 1 0 -0 -0 1 2 3 3 3 3 4 4 3 4 4 4 4 4 4 5 6 7 7 7 7 7 7 6 6 6 6 7 8 8 9 10 10 11 12 12 12 12 12
2 2 2 1 0 1 2 3 3 3 4 4 3 3 4 4 4 4 4 5 6 6 7 7 7 6 6 7 6 6 7 8 8 8 9 9 10 11 11 12 12 12 11 11
3 3 3 3 2 1 2 3 3 3 4 3 3 3 4 4 4 4 4 5 6 7 7 7 6 6 7 7 8 9 9 10 10 9 10 10 10 11 11 12 12 11 11 10
3 3 4 3 3 2 2 2 3 3 3 3 3 3 3 4 4 4 5 6 6 7 7 6 6 7 8 10 11 11 12 11 11 11 11 11 11 12 12 12 11 11 10 10
3 3 3 3 3 3 3 2 2 2 2 2 2 2 3 4 4 4 5 6 7 7 6 6 6 8 10 11 12 12 12 12 11 11 11 12 13 13 12 12 11 10 10 10